TA2R-16 Weather Reports


Display with metric or nautical units.
time (UTC)temp
F
wind
direction
speed
MPH
gust
MPH
rain 1hr
in
rain 24hr
in
rain mn
in
humidity
%
barometer
mb
20260508070005 99 0 0.0 0.0 0.00 0.00 0.00 22 1006.9
20260508063002 99 0 0.0 0.0 0.00 0.00 0.00 20 1006.8
20260508060003 91 0 0.0 0.0 0.00 0.00 0.00 26 1006.6
20260508053002 89 0 0.0 0.0 0.00 0.00 0.00 28 1006.6
20260508050003 85 0 0.0 0.0 0.00 0.00 0.00 31 1006.6
20260508043003 84 0 0.0 0.0 0.00 0.00 0.00 32 1006.5
20260508040002 84 0 0.0 0.0 0.00 0.00 0.00 33 1006.4
20260508033002 83 0 0.0 0.0 0.00 0.00 0.00 34 1006.4
20260508030003 83 0 0.0 0.0 0.00 0.00 0.00 34 1006.3
20260508023002 83 0 0.0 0.0 0.00 0.00 0.00 34 1006.3
20260508020002 83 0 0.0 0.0 0.00 0.00 0.00 34 1006.1
20260508013002 83 0 0.0 0.0 0.00 0.00 0.00 34 1006.1
20260508010003 83 0 0.0 0.0 0.00 0.00 0.00 34 1006.3
20260508003002 83 0 0.0 0.0 0.00 0.00 0.00 34 1006.4
20260508000002 84 0 0.0 0.0 0.00 0.00 0.00 34 1006.4
20260507233002 84 0 0.0 0.0 0.00 0.00 0.00 34 1006.6
20260507230002 85 0 0.0 0.0 0.00 0.00 0.00 33 1006.7
20260507223002 85 0 0.0 0.0 0.00 0.00 0.00 34 1006.8
20260507220002 85 0 0.0 0.0 0.00 0.00 0.00 31 1006.9
20260507213001 86 0 0.0 0.0 0.00 0.00 0.00 31 1007.0
20260507210002 86 0 0.0 0.0 0.00 0.00 0.00 30 1006.8
20260507203002 87 0 0.0 0.0 0.00 0.00 0.00 30 1006.8
20260507200003 87 0 0.0 0.0 0.00 0.00 0.00 29 1006.6
20260507193002 88 0 0.0 0.0 0.00 0.00 0.00 29 1006.6
20260507190003 89 0 0.0 0.0 0.00 0.00 0.00 28 1006.4
20260507183002 89 0 0.0 0.0 0.00 0.00 0.00 27 1006.1
20260507180001 90 0 0.0 0.0 0.00 0.00 0.00 26 1005.9
20260507173002 91 0 0.0 0.0 0.00 0.00 0.00 25 1005.7
20260507170002 92 0 0.0 0.0 0.00 0.00 0.00 23 1005.5
20260507163002 93 0 0.0 0.0 0.00 0.00 0.00 20 1005.5
20260507160002 94 0 0.0 0.0 0.00 0.00 0.00 15 1005.6
20260507153002 94 0 0.0 0.0 0.00 0.00 0.00 16 1005.8
20260507150001 95 0 0.0 0.0 0.00 0.00 0.00 16 1006.0
20260507143001 95 0 0.0 0.0 0.00 0.00 0.00 16 1006.1
20260507140002 96 0 0.0 0.0 0.00 0.00 0.00 24 1006.2
20260507133002 96 0 0.0 0.0 0.00 0.00 0.00 23 1006.2
20260507130005 96 0 0.0 0.0 0.00 0.00 0.00 21 1006.3
20260507123002 95 0 0.0 0.0 0.00 0.00 0.00 18 1006.5
20260507120002 95 0 0.0 0.0 0.00 0.00 0.00 17 1006.9
20260507113002 94 0 0.0 0.0 0.00 0.00 0.00 18 1006.8
20260507110002 94 0 0.0 0.0 0.00 0.00 0.00 17 1006.8
20260507103002 94 0 0.0 0.0 0.00 0.00 0.00 18 1007.0
20260507100002 95 0 0.0 0.0 0.00 0.00 0.00 17 1006.9
20260507093002 95 0 0.0 0.0 0.00 0.00 0.00 18 1007.1
20260507090001 96 0 0.0 0.0 0.00 0.00 0.00 18 1007.2
20260507083002 97 0 0.0 0.0 0.00 0.00 0.00 23 1007.4
20260507080002 99 0 0.0 0.0 0.00 0.00 0.00 22 1007.4